Voltar ao catálogo

NOAA 16 DEB

AtivoSSO
NORAD 41653·DEBRIS·🇺🇸 United States

Lançado Sep 21, 2000 de Vandenberg Space Force Base

Loading…

Próximas Passagens (próximas 24 horas)

TLE

AtualizadoSource: Space-Track

Época: Sep 13, 2026, 20:17 UTC

1 41653U 00055NS  26256.84571863  .00004630  00000-0  13815-2 0  9995
2 41653  98.8763  36.5676 0003135 328.3467  31.7533 14.43513314540022

Acompanhe NOAA 16 DEB em tempo real com AllMySat

Download on the App Store